Weather History for Sheboygan, WI

Change the Weather History Date:

Tuesday, November 1, 2011

  Actual Average Record
Temperature  
Mean Temperature 44 °F -  
Max Temperature 55 °F 53 °F 75 °F (1950)
Min Temperature 32 °F 40 °F 24 °F (1996)
Degree Days  
Heating Degree Days 22    
Moisture  
Dew Point 39 °F    
Average Humidity 79    
Maximum Humidity 96    
Minimum Humidity 55    
Precipitation  
Precipitation 0.00 in - - ()
Sea Level Pressure  
Sea Level Pressure 30.05 in    
Wind  
Wind Speed 6 mph (South)    
Max Wind Speed 18 mph    
Max Gust Speed 25 mph    
Visibility 9 miles    
Events      
Averages and records for this station are not official NWS values.
T = Trace of Precipitation, MM = Missing Value Source: NWS Daily Summary

Daily Weather History Graph

Daily Weather History Graph

Search for Another Location

Airport:

Trip Planner

Search our weather history database for the weather conditions in past years. The results will help you decide how hot, cold, wet, or windy it might be!

Date:

Astronomy

Nov. 01, 2011 Rise Set
Actual Time 7:27 AM CDT 5:42 PM CDT
Civil Twilight 6:57 AM CDT 6:12 PM CDT
Nautical Twilight 6:23 AM CDT 6:46 PM CDT
Astronomical Twilight 5:49 AM CDT 7:19 PM CDT
Moon 1:15 PM CDT (11/1) 11:23 PM CDT (11/1)
Length of Visible Light 11h 15m
Length of Day
10h 15m
Waxing Crescent, 40% of the Moon is Illuminated
Nov 1
Waxing Crescent
Nov 2
First Quarter
Nov 10
Full
Nov 18
Last Quarter
Nov 25
New

Hourly Weather History & Observations

Time (CDT) Temp. Windchill Dew Point Humidity Pressure Visibility Wind Dir Wind Speed Gust Speed Precip Events Conditions
12:53 AM 39.0 °F 36.8 °F 34.0 °F 82% 30.12 in 10.0 mi SSW 3.5 mph - N/A   Clear
1:53 AM 36.0 °F 31.1 °F 32.0 °F 86% 30.13 in 10.0 mi South 5.8 mph - N/A   Clear
2:53 AM 35.1 °F 32.2 °F 32.0 °F 89% 30.13 in 10.0 mi SSW 3.5 mph - N/A   Clear
3:53 AM 34.0 °F - 32.0 °F 92% 30.13 in 9.0 mi Calm Calm - N/A   Clear
4:53 AM 32.0 °F - 30.9 °F 96% 30.13 in 7.0 mi Calm Calm - N/A   Clear
5:53 AM 34.0 °F - 32.0 °F 92% 30.13 in 7.0 mi Calm Calm - N/A   Clear
6:53 AM 33.1 °F - 32.0 °F 96% 30.11 in 7.0 mi Calm Calm - N/A   Clear
8:53 AM 39.9 °F 35.8 °F 36.0 °F 86% 30.13 in 7.0 mi South 5.8 mph - N/A   Clear
9:53 AM 45.0 °F 40.6 °F 37.9 °F 76% 30.11 in 10.0 mi South 8.1 mph - N/A   Clear
10:53 AM 50.0 °F - 37.0 °F 61% 30.08 in 10.0 mi South 15.0 mph 19.6 mph N/A   Clear
11:53 AM 53.1 °F - 37.9 °F 57% 30.07 in 10.0 mi SSE 12.7 mph - N/A   Clear
12:53 PM 55.0 °F - 39.0 °F 55% 30.04 in 10.0 mi SSE 12.7 mph - N/A   Clear
1:53 PM 55.0 °F - 42.1 °F 62% 30.02 in 10.0 mi SSE 17.3 mph 24.2 mph N/A   Clear
2:53 PM 53.1 °F - 42.1 °F 66% 30.00 in 10.0 mi South 18.4 mph 25.3 mph N/A   Clear
3:53 PM 52.0 °F - 43.0 °F 71% 29.99 in 10.0 mi South 13.8 mph 24.2 mph N/A   Clear
4:53 PM 53.1 °F - 44.1 °F 71% 29.98 in 10.0 mi South 16.1 mph 21.9 mph N/A   Clear
5:53 PM 52.0 °F - 44.1 °F 74% 29.97 in 10.0 mi South 11.5 mph - N/A   Clear
6:53 PM 52.0 °F - 45.0 °F 77% 29.99 in 10.0 mi South 10.4 mph - N/A   Clear
7:53 PM 48.0 °F - 45.0 °F 89% 29.99 in 9.0 mi South 4.6 mph - N/A   Clear
8:53 PM 46.9 °F - 44.1 °F 90% 29.99 in 7.0 mi South 5.8 mph - N/A   Clear
9:53 PM 46.0 °F 43.9 °F 43.0 °F 89% 30.00 in 7.0 mi South 4.6 mph - N/A   Clear
10:53 PM 50.0 °F - 44.1 °F 80% 29.99 in 9.0 mi South 8.1 mph - N/A   Clear
11:53 PM 48.9 °F - 44.1 °F 83% 29.98 in 9.0 mi South 6.9 mph - N/A   Clear